RH
77 77 78 79 82 82 80 80 81 80 74 70 68 65 51 35 44 88 86 75 85 66 72 89 76 64 60 61 58 56 60 61 56
68 70 70 74 79 81 82 86 91 91 89 84 76 73 69 65 56 80 84 90 71 56 57 79 84 76 61 50 57 55 55 56 63
56 54 53 52 60 66 69 78 84 86 88 90 91 92 88 80 83 84 82 82 49 53 56 61 74 94 84 69 60 49 49 54 56
28 24 22 20 22 28 35 37 39 64 81 84 90 94 87 91 96 98 93 82 69 44 48 52 58 67 92 89 78 68 61 50 54
12 12 11 12 13 14 15 16 17 20 31 52 75 88 89 88 87 90 92 100 93 80 57 43 47 52 68 86 89 79 72 72 54
11 11 12 11 11 11 12 12 13 15 16 22 38 37 51 86 96 90 82 93 93 93 87 81 60 46 50 70 87 93 84 70 72
14 14 14 15 16 17 18 17 16 16 31 41 46 55 64 80 84 83 84 80 83 84 86 93 93 80 65 49 64 66 87 92 78
24 29 31 23 24 25 28 29 39 38 28 33 43 44 43 47 55 70 79 78 84 84 84 88 90 88 91 88 64 55 64 74 91
30 27 27 30 33 28 35 31 39 46 50 54 55 52 49 46 46 48 55 64 62 58 72 81 90 93 94 95 97 74 56 66 73
22 19 19 28 35 46 47 41 40 42 53 56 61 64 63 62 57 54 52 52 53 38 28 43 58 78 89 91 96 98 88 83 67
12 15 33 43 67 67 66 70 65 66 66 65 64 61 60 59 61 63 64 65 64 57 45 30 24 29 44 70 85 100 99 95 91
23 31 41 67 81 72 86 85 84 82 79 78 76 76 73 73 76 74 71 68 69 71 67 42 42 39 29 24 26 38 59 89 97
39 41 55 69 67 87 93 91 88 87 84 78 75 69 69 74 74 72 72 70 76 80 80 83 70 48 42 40 40 38 32 28 42
42 48 67 75 81 95 95 93 90 86 82 78 74 76 76 82 81 79 76 83 84 83 92 88 75 78 67 61 58 57 54 49 42
43 58 86 87 96 92 91 92 91 91 82 82 79 79 79 72 78 80 81 83 82 80 81 91 92 89 82 70 61 57 56 57 57
50 71 92 97 96 94 94 93 95 90 87 84 74 76 66 63 78 83 85 84 87 86 85 86 85 88 90 89 76 60 60 59 55
51 63 88 98 97 96 96 98 98 93 88 90 83 70 69 71 74 78 83 85 88 86 87 89 89 88 88 85 82 70 67 69 70
59 59 72 99 100 98 96 97 97 98 92 94 95 82 73 61 69 73 78 79 82 85 87 85 91 93 73 78 81 68 69 69 76
64 55 65 82 99 100 97 97 98 100 97 93 95 98 98 98 86 68 80 81 80 80 84 88 91 92 90 82 83 76 73 72 76
72 64 65 68 80 94 100 98 99 100 98 97 98 100 100 98 97 97 94 69 82 80 84 92 90 89 82 84 84 89 88 83 73
Wind_Speed
9 9 10 10 9 10 10 10 10 11 11 12 11 10 9 8 6 8 7 11 11 11 8 7 9 9 8 8 8 7 6 5 4
12 12 12 12 12 12 12 13 13 14 13 13 13 13 12 11 8 9 10 10 13 10 11 10 12 11 9 9 8 8 8 7 5
14 14 14 14 14 14 14 14 16 16 16 16 15 14 15 14 11 11 13 13 13 13 12 13 14 15 14 12 10 10 9 8 7
16 16 16 17 17 17 18 18 18 18 17 17 17 16 19 18 16 13 14 15 16 14 16 15 16 16 18 17 15 13 11 10 10
18 19 19 20 20 20 21 21 21 21 21 21 21 20 22 22 21 20 18 18 19 18 17 18 18 18 17 19 20 17 15 13 12
18 21 20 21 22 22 23 23 23 23 23 20 22 22 24 22 20 22 21 25 23 21 20 20 21 21 21 20 20 22 20 17 15
19 20 20 21 22 22 24 24 23 22 17 14 18 15 13 18 21 24 24 26 26 25 26 23 23 23 24 24 23 23 24 23 21
17 18 18 22 22 21 21 21 18 18 20 18 16 17 16 17 17 18 24 24 25 26 27 28 26 24 25 25 26 26 26 26 26
17 19 21 20 19 20 19 19 18 19 18 17 17 17 17 17 18 18 22 26 28 27 29 29 28 26 24 25 26 26 26 27 27
21 21 20 19 18 17 17 19 18 18 17 16 17 17 17 18 18 20 19 25 29 29 28 28 29 28 28 29 26 26 27 28 29
22 22 19 18 16 16 17 17 18 17 15 16 15 16 17 17 18 19 20 21 26 28 26 27 29 30 30 30 29 28 28 27 29
21 21 19 15 16 16 14 13 13 13 13 15 14 14 14 14 14 15 17 18 19 21 23 22 24 27 29 30 31 31 31 31 32
20 18 15 15 15 12 11 11 11 11 12 12 12 12 12 12 13 12 13 13 13 14 14 19 19 19 22 25 27 29 32 35 36
17 14 13 13 10 8 9 9 10 12 12 13 14 11 10 8 7 8 9 9 11 11 10 16 15 14 14 15 17 19 23 27 31
15 11 10 10 8 8 8 10 10 12 13 14 11 8 6 3 6 7 8 10 12 12 12 11 10 14 17 18 16 18 21 24 27
13 10 9 8 7 9 10 11 12 11 13 11 10 5 6 7 6 7 9 10 11 12 11 10 11 10 13 15 18 18 21 25 29
12 10 8 6 7 7 8 9 11 9 11 12 8 4 4 4 5 8 10 12 13 11 10 10 10 12 14 17 19 21 22 29 29
13 10 8 7 7 7 8 9 10 10 9 10 6 5 4 12 2 6 9 13 12 11 10 10 11 12 15 17 20 19 23 30 25
14 11 9 9 8 8 8 8 10 8 8 7 5 6 6 4 8 6 7 11 9 12 11 11 11 13 13 15 18 17 22 25 27
15 14 11 10 9 9 9 8 8 8 7 7 8 8 6 2 7 12 19 12 7 10 10 11 10 11 12 14 18 21 21 21 23
Wind_Direction
332 330 327 323 317 315 315 316 319 319 318 318 317 315 313 306 301 289 287 288 264 279 275 260 286 307 305 305 303 302 298 292 301
322 320 317 314 312 310 308 305 306 307 310 309 307 304 303 303 297 269 275 271 271 281 277 271 276 290 298 303 303 301 297 292 274
317 316 314 311 308 301 297 295 297 298 297 298 299 300 300 298 293 284 272 263 271 270 275 274 272 276 282 290 294 293 297 290 276
313 310 308 305 301 298 294 291 290 285 285 286 287 286 289 288 287 269 275 281 280 271 269 271 272 272 273 274 284 283 281 282 282
311 306 307 303 299 296 294 292 290 287 282 281 279 279 275 277 279 277 272 263 279 280 276 269 267 269 270 273 272 277 278 273 274
311 305 305 303 300 298 295 293 291 290 288 289 289 284 273 274 273 272 270 271 275 280 281 276 271 267 265 267 269 266 270 273 272
312 308 308 304 303 301 297 295 295 294 293 283 290 298 289 279 284 275 274 267 271 276 278 281 275 271 269 265 264 268 265 266 270
320 316 313 310 309 306 300 302 300 290 290 285 282 277 277 272 269 273 283 278 272 268 271 275 277 274 271 270 268 264 267 267 268
316 314 312 312 310 305 306 300 296 295 293 289 284 281 277 268 268 266 268 273 270 268 267 266 269 271 273 272 271 268 265 265 266
314 314 312 308 306 304 299 299 298 294 293 290 287 284 282 279 273 268 270 273 274 275 269 267 268 269 269 272 276 268 267 267 264
316 315 310 306 304 301 300 302 303 302 299 294 291 290 286 284 279 275 272 269 276 280 275 268 266 267 267 266 264 267 264 268 268
317 315 311 309 299 305 304 306 306 305 302 300 300 298 295 289 289 285 279 277 277 289 291 285 273 270 271 272 271 271 268 266 264
321 320 317 308 311 313 316 315 316 317 313 310 306 305 299 297 294 295 299 294 292 287 306 300 298 285 281 280 280 280 277 274 270
323 321 322 324 327 329 326 324 323 324 319 318 312 308 298 304 310 319 313 308 304 300 294 300 318 318 313 309 303 298 292 286 279
323 324 325 330 334 331 319 324 324 324 319 322 324 308 303 324 336 329 336 325 321 316 307 312 319 316 321 318 308 303 303 299 292
323 319 321 323 324 319 329 328 328 334 329 344 335 347 327 7 334 345 349 347 337 333 332 321 316 319 313 320 316 317 316 310 301
321 313 310 312 314 317 320 321 326 332 337 341 354 345 297 300 304 349 348 345 352 343 333 325 326 323 320 318 325 310 325 327 313
321 308 302 301 303 300 305 313 324 328 348 345 360 342 348 336 313 332 354 342 356 346 347 344 328 331 333 331 316 321 321 335 327
320 312 300 293 296 293 294 303 312 318 323 348 340 327 293 333 321 298 348 330 4 344 352 338 347 333 340 345 354 337 328 333 346
316 313 300 295 295 291 298 300 299 306 302 305 307 306 303 304 302 315 331 351 39 340 347 350 337 341 358 357 6 7 356 349 346